Regional Weather Roundup
Issued by NWS Midland/Odessa, TX

Skip options and go directly to product.
Home | Oldest Version | Previous Version | Current Version | All | Graphics & Text | Save Text | Print | Product List | Glossary On

Skip product version selection by date and time.   
601
ASUS44 KMAF 260010
RWRMAF
MIDLAND AREA WEATHER ROUNDUP
NATIONAL WEATHER SERVICE MIDLAND TX
600 PM CST SUN JAN 25 2015

...IN SOUTHWEST TEXAS AND SOUTHEAST NEW MEXICO...

CITY           SKY/WX    TMP DP  RH WIND       PRES   REMARKS
ALPINE         MOCLDY    53  31  44 E3        30.30F
ANDREWS        FAIR      57  27  31 CALM      30.24S
ARTESIA        CLEAR     54  32  43 S8        30.24S
BIG SPRING     CLEAR     61  29  29 N3        30.24S
CARLSBAD       CLEAR     56  26  31 S7        30.22S
DRYDEN           N/A     63  28  26 NE3       30.20S
FORT STOCKTON  PTCLDY    55  33  43 E5        30.24S
GUAD PASS      NOT AVBL
HOBBS          CLEAR     55  27  33 CALM      30.24F
MARFA          MOCLDY    54  27  35 SE3       30.27S
MIDLAND AIRPK  CLEAR     60  28  29 CALM      30.24S
MIDLAND INTL   CLEAR     59  28  30 N3        30.23R
ODESSA         CLEAR     59  25  27 NE3       30.24S
PECOS          PTCLDY    56  31  38 SE5       30.23S
PRESIDIO       FAIR      60  31  33 SW5       30.20S
SEMINOLE       CLEAR     55  30  37 CALM      30.25F
SNYDER         CLEAR    N/A N/A N/A NW5       30.21S
WINK           CLEAR     59  21  23 E6        30.22S
$$
...OTHER STATIONS IN TEXAS...

CITY           SKY/WX    TMP DP  RH WIND       PRES   REMARKS
ABILENE        CLEAR     58  27  30 NW9       30.18S
AMARILLO       CLEAR     47  33  58 W6        30.19S
AUSTIN         MOCLDY    64  31  28 NW9       30.12R
BROWNSVILLE    MOCLDY    64  48  56 N5        30.13R
CORPUS CHRISTI CLOUDY    62  46  55 NW8       30.11R
DALLAS FTW     PTCLDY    59  23  25 NW17      30.07R
DEL RIO        MOCLDY    64  37  36 W7        30.17S
EL PASO        MOCLDY    59  26  28 S12       30.20R
HOUSTON INT    PTCLDY    63  38  39 W9        30.03R
LUBBOCK        PTCLDY    53  31  42 W7        30.20F
SAN ANGELO     CLEAR     59  34  39 N6        30.21R
SAN ANTONIO    MOCLDY    64  34  32 N6        30.15R
WACO           CLEAR     60  24  25 NW13      30.10R
WICHITA FALLS  NOT AVBL
$$
...OTHER LOCATIONS IN NEW MEXICO...

CITY           SKY/WX    TMP DP  RH WIND       PRES   REMARKS
ALAMAGORDO     CLEAR     55  25  30 W3        30.22S
ALBUQUERQUE    PTCLDY    54  21  27 W3        30.24S
CANNON AFB     CLEAR     47  32  54 CALM      30.24R
CLOVIS         CLEAR     48  30  49 W6        30.24S
HOLLOMAN AFB   PTCLDY    55  28  35 NW5       30.20F
ROSWELL        CLEAR     54  29  38 S7        30.22F
RUIDOSO        CLEAR     46  23  39 NW6       30.27S
SANTA FE       CLEAR     47  19  33 SW6       30.24R
TRUTH OR CONSE CLEAR     58  18  21 E5        30.21S
TUCUMCARI      CLEAR     46  32  58 S9        30.22R
$$

USA.gov is the U.S. government's official web portal to all federal, state and local government web resources and services.